Regional Weather Roundup
Issued by NWS Charleston, SC

Current Version | Previous Version | Text Only | Print | Product List | Glossary Off
Versions: 1 2 3 4 5 6 7 8 9 10 11 12 13 14 15 16 17 18 19 20 21 22 23 24 25 26 27 28 29 30 31 32 33 34 35 36 37 38 39 40 41 42 43 44 45 46 47 48 49 50

000
ASUS42 KCHS 292112
RWRCHS

REGIONAL WEATHER ROUNDUP
NATIONAL WEATHER SERVICE CHARLESTON SC
500 PM EDT SAT APR 29 2017

NOTE: "FAIR" INDICATES FEW OR NO CLOUDS BELOW 12,000 FEET WITH NO
SIGNIFICANT WEATHER AND/OR OBSTRUCTIONS TO VISIBILITY.

NOT ALL STATIONS ARE QUALITY CONTROLLED. USE DATA WITH CAUTION...
ESPECIALLY DEWPOINT OBSERVATIONS.

SCZ027-030-031-034>040-042>050-292200-
...SOUTHEAST SOUTH CAROLINA...

CITY           SKY/WX    TMP DP  RH WIND       PRES   REMARKS
N CHARLESTON   CLOUDY    82  67  60 S15       30.18F
WATERFRONT PRK   N/A     79  71  76 S10       30.17F
JOHNS ISLAND   FAIR      81  72  74 S8G17     30.19F
PINOPOLIS        N/A     84  70  61 S7        30.09F
MONCKS CORNER  FAIR      82  66  57 S8        30.17S
SUMMERVILLE    FAIR      82  70  65 S6        30.18S
BEAUFORT MCAS  MOSUNNY   82  72  71 S9        30.18F
BEAUFORT ARPT  FAIR      79  70  73 S14       30.17F
HILTON HEAD IS MOSUNNY   81  72  74 S12       30.19F
WALTERBORO     CLOUDY    82  70  65 S14       30.18S
ALLENDALE      FAIR      88  68  51 SE12      30.13S HX  91

...SOUTHERN MIDLANDS AND PEE DEE...

CITY           SKY/WX    TMP DP  RH WIND       PRES   REMARKS
GEORGETOWN     FAIR      82  70  65 S10       30.19F
KINGSTREE      FAIR      86  64  48 S8        30.15S HAZE
ORANGEBURG     MOSUNNY   86  67  52 S13       30.14F
BARNWELL       MOCLDY    88  68  51 SE9       30.13F HX  91
AIKEN          FAIR      84  66  54 S8        30.17S
MANNING        FAIR      84  66  54 MISG      30.15F
COLUMBIA       CLOUDY    89  64  43 S12       30.12F HX  90
SUMTER         MOSUNNY   87  67  51 S13       30.12F
FLORENCE       PTSUNNY   87  68  52 S7        30.14F HX  90
MYRTLE BEACH   MOSUNNY   81  72  74 S16G24    30.19F
N MYRTLE BEACH SUNNY     79  72  79 S16       30.19F

$$

GAZ063-065-086>088-099>101-113>116-118-119-134>141-150-292200-
...SOUTHEAST GEORGIA...

CITY           SKY/WX    TMP DP  RH WIND       PRES   REMARKS
SAVANNAH ARPT  PTSUNNY   85  66  53 SE15      30.16F
HUNTER AAF     MOSUNNY   81  74  78 SE13      30.14F
FORT STEWART   CLOUDY    84  67  54 SE16      30.12F
STATESBORO     MOSUNNY   87  66  49 S12       30.12F HX  90
SYLVANIA       PTCLDY   N/A N/A N/A SE7       30.14S
CLAXTON        FAIR      88  69  52 E9        30.12F HX  92

...CSRA...CENTRAL AND FAR SOUTHEAST GEORGIA...

CITY           SKY/WX    TMP DP  RH WIND       PRES   REMARKS
THOMSON        MOSUNNY   87  69  55 SW7       30.16F HX  90
AUGUSTA-BUSH   MOSUNNY   91  69  48 SE10      30.10F HX  96
AUGUSTA-DANIEL MOSUNNY   89  65  44 VRB6      30.12F HX  91
SWAINSBORO     FAIR      90  63  40 S10       30.12F HX  90
VIDALIA        MOSUNNY   91  63  38 S8        30.11F HX  92
EASTMAN        FAIR      91  43  18 SE10      30.12S
HAZLEHURST     FAIR      91  64  41 S7        30.09F HX  92
ALMA           MOSUNNY   91  64  40 E8        30.09F HX  92
WAYCROSS       PTSUNNY   92  66  41 S8G17     30.09F HX  95
JESUP          FAIR      88  64  45 SE7G17    30.13S
BAXLEY         PTSUNNY   91  70  49 SE7       30.09F HX  97
BRUNSWICK      CLOUDY    82  72  69 SE14G22   30.16F
SAINT SIMONS   SUNNY     80  70  71 SE15      30.16F

$$

SCZ027-028-034-036>038-045-046-048>050-GAZ119-141-292200-
...LAKE AND SUPPLEMENTAL COASTAL OBSERVATIONS...

STATION/POSITION TIME  TEMP    WIND        PRES    WAVE   SWELL
                       AIR SEA DIR/SP/G            HT/PER HT/PER/DIR
                 (UTC) (F)     (DEG/KT/KT) (MB)    (FT/S) (FT/S/D)
WINYAH BAY       1945   80     190/ 13     1022.0
LAKE MURRAY      2020   92        CALM     1019.6
ACE BASIN NERRS  NOT AVBL
FORT PULASKI     2042   81 77  170/  7/ 13 1022.2F
SAPELO ISLAND    2000   83     160/ 13     1022.0

$$

ANZ835-935-AMZ111-154-330-350-352-354-370-450-454-472-292200-
...C-MAN AND BUOY OBSERVATIONS...

STATION/POSITION TIME  TEMP    WIND        PRES    WAVE   SWELL
                       AIR SEA DIR/SP/G            HT/PER HT/PER/DIR
                 (UTC) (F)     (DEG/KT/KT) (MB)    (FT/S) (FT/S/D)
BUOY 41004       2050   77 76  170/  6/  8 1022.6F   3/ 6   3/130/ 6
BUOY 41008       1950   76 76  130/  6/  8 1021.9    3/ 6   3/120/ 6
FOLLY BEACH CMAN 2000   78     170/  8/  9 1023.5F
CAPERS NEARSHORE 2008   78 77  190/ 10/ 12 1022.7F
FRIPP NEARSHORE  2008   76 78  170/  8/ 10 1022.2F


STATION/POSITION TIME  TEMP    WIND        PRES    WAVE   SWELL
                       AIR SEA DIR/SP/G            HT/PER HT/PER/DIR
                 (UTC) (F)     (DEG/KT/KT) (MB)    (FT/S) (FT/S/D)
5E ST. MARYS GA  2030      76                N/A     3/ 6
FRYING PAN BUOY  2050   76 74  190/  8/  8 1023.0F   4/ 8   3/110/ 8
BUOY 41025       2050   77 76  220/ 14/ 16 1022.8F   4/ 4   2/140/ 8
CAPE LOOKOUT NC  2000   77     210/ 13/ 15 1022.5F
BUOY 41002       2050   75 76  150/ 12/ 14 1024.4F   3/ 7   2/ 80/ 7
BUOY 41010       2050   78 78  120/ 14/ 17 1021.9F   4/ 7   3/100/ 7
ST AUGUSTINE FL  2100   76 80  130/ 15/ 17 1021.6F


$$




USA.gov is the U.S. government's official web portal to all federal, state and local government web resources and services.